Location: Newark
(42.8481°N, 0.4872°E)
Time: 08:15:57
(UTC+00:00)

Vanguard 3 - Pass Details

Date: 01 November 2020
Orbit: 508 x 3262 km, 33.3° (Epoch: 28 November)

Event Time Altitude Azimuth Distance (km) Brightness Sun altitude
Rises 01:59:00 0° 194° (SSW) 5,142 - -49.2°
Reaches altitude 10° 02:02:59 10° 180° (S) 4,567 - -48.6°
Exits shadow 02:08:38 21° 155° (SSE) 4,224 10.6 -47.7°
Maximum altitude 02:12:51 24° 134° (SE) 4,357 10.8 -47.0°
Drops below altitude 10° 02:25:36 10° 90° (E) 6,074 12.1 -44.9°
Sets 02:32:03 0° 79° (E) 7,225 12.7 -43.9°
